Météo par heure à Aljojuca

Ce jour, 15 Mai, Samedi

Heure Température Précipitation Vent Pression Humidité
00:00 +13°C° 0 mm 1 m/s 563 mmHg 84%
01:00 +13°C° 0 mm 1 m/s 562 mmHg 85%
02:00 +12°C° 0 mm 1 m/s 562 mmHg 85%
03:00 +12°C° 0 mm 1 m/s 562 mmHg 85%
04:00 +12°C° 0 mm 1 m/s 562 mmHg 84%
05:00 +12°C° 0 mm 1 m/s 562 mmHg 83%
06:00 +14°C° 0 mm 1 m/s 563 mmHg 78%
07:00 +15°C° 0 mm 1 m/s 563 mmHg 72%
08:00 +16°C° 0 mm 1 m/s 564 mmHg 66%
09:00 +18°C° 0.1 mm 1 m/s 564 mmHg 60%
10:00 +20°C° 0.1 mm 1 m/s 565 mmHg 54%
11:00 +20°C° 0.1 mm 2 m/s 565 mmHg 49%
12:00 +21°C° 0.3 mm 2 m/s 565 mmHg 47%
13:00 +21°C° 0.3 mm 2 m/s 564 mmHg 45%
14:00 +22°C° 0.3 mm 3 m/s 564 mmHg 43%
15:00 +20°C° 0.5 mm 3 m/s 563 mmHg 50%
16:00 +19°C° 0.5 mm 3 m/s 563 mmHg 57%
17:00 +18°C° 0.5 mm 4 m/s 562 mmHg 64%
18:00 +16°C° 1.8 mm 3 m/s 562 mmHg 71%
19:00 +15°C° 1.8 mm 2 m/s 562 mmHg 77%
20:00 +14°C° 1.8 mm 2 m/s 562 mmHg 84%
21:00 +14°C° 0.6 mm 1 m/s 562 mmHg 82%
22:00 +14°C° 0.6 mm 1 m/s 562 mmHg 80%
23:00 +13°C° 0.6 mm 0 m/s 562 mmHg 78%

Demain, 16 Mai, Dimanche

Heure Température Précipitation Vent Pression Humidité
00:00 +13°C° 0.1 mm 0 m/s 562 mmHg 79%
01:00 +13°C° 0.1 mm 0 m/s 562 mmHg 80%
02:00 +12°C° 0.1 mm 0 m/s 561 mmHg 81%
03:00 +13°C° 0.1 mm 1 m/s 562 mmHg 80%
04:00 +13°C° 0.1 mm 1 m/s 562 mmHg 80%
05:00 +13°C° 0.1 mm 1 m/s 562 mmHg 79%
06:00 +14°C° 0 mm 1 m/s 563 mmHg 73%
07:00 +16°C° 0 mm 1 m/s 563 mmHg 66%
08:00 +18°C° 0 mm 1 m/s 564 mmHg 59%
09:00 +18°C° 0.1 mm 2 m/s 564 mmHg 57%
10:00 +19°C° 0.1 mm 2 m/s 564 mmHg 55%
11:00 +20°C° 0.1 mm 2 m/s 564 mmHg 52%
12:00 +20°C° 0.6 mm 3 m/s 564 mmHg 52%
13:00 +21°C° 0.6 mm 3 m/s 564 mmHg 51%
14:00 +21°C° 0.6 mm 3 m/s 563 mmHg 50%
15:00 +20°C° 0.7 mm 3 m/s 563 mmHg 54%
16:00 +19°C° 0.7 mm 2 m/s 562 mmHg 58%
17:00 +18°C° 0.7 mm 2 m/s 562 mmHg 62%
18:00 +17°C° 1.8 mm 2 m/s 562 mmHg 66%
19:00 +16°C° 1.8 mm 1 m/s 562 mmHg 70%
20:00 +15°C° 1.8 mm 1 m/s 563 mmHg 75%
21:00 +15°C° 0.5 mm 1 m/s 562 mmHg 76%
22:00 +15°C° 0.5 mm 1 m/s 562 mmHg 76%
23:00 +15°C° 0.5 mm 1 m/s 562 mmHg 77%

Après-demain, 17 Mai, Lundi

Heure Température Précipitation Vent Pression Humidité
00:00 +15°C° 0.8 mm 1 m/s 562 mmHg 78%
01:00 +14°C° 0.8 mm 1 m/s 562 mmHg 79%
02:00 +14°C° 0.8 mm 1 m/s 561 mmHg 80%
03:00 +14°C° 0.2 mm 1 m/s 561 mmHg 80%
04:00 +14°C° 0.2 mm 1 m/s 561 mmHg 79%
05:00 +13°C° 0.2 mm 0 m/s 561 mmHg 78%
06:00 +15°C° 0.1 mm 1 m/s 562 mmHg 73%
07:00 +18°C° 0.1 mm 1 m/s 563 mmHg 67%
08:00 +18°C° 0.1 mm 2 m/s 564 mmHg 61%
09:00 +19°C° 0.1 mm 2 m/s 564 mmHg 55%
10:00 +21°C° 0.1 mm 2 m/s 564 mmHg 49%
11:00 +22°C° 0.1 mm 3 m/s 565 mmHg 43%
12:00 +21°C° 0.4 mm 3 m/s 564 mmHg 47%
13:00 +20°C° 0.4 mm 4 m/s 563 mmHg 52%
14:00 +19°C° 0.4 mm 5 m/s 562 mmHg 56%
15:00 +17°C° 4 mm 5 m/s 562 mmHg 63%
16:00 +15°C° 4 mm 4 m/s 562 mmHg 69%
17:00 +14°C° 4 mm 3 m/s 561 mmHg 75%
18:00 +14°C° 1 mm 3 m/s 562 mmHg 75%
19:00 +15°C° 1 mm 2 m/s 562 mmHg 75%
20:00 +14°C° 1 mm 1 m/s 562 mmHg 74%
21:00 +14°C° 0 mm 1 m/s 562 mmHg 75%
22:00 +14°C° 0 mm 1 m/s 562 mmHg 75%
23:00 +13°C° 0 mm 1 m/s 562 mmHg 75%

18 Mai, Mardi

Heure Température Précipitation Vent Pression Humidité
00:00 +13°C° 0 mm 1 m/s 561 mmHg 75%
01:00 +13°C° 0 mm 1 m/s 561 mmHg 75%
02:00 +13°C° 0 mm 1 m/s 560 mmHg 75%
03:00 +12°C° 0 mm 1 m/s 560 mmHg 74%
04:00 +12°C° 0 mm 1 m/s 560 mmHg 74%
05:00 +12°C° 0 mm 1 m/s 560 mmHg 73%
06:00 +14°C° 0 mm 1 m/s 561 mmHg 66%
07:00 +16°C° 0 mm 1 m/s 562 mmHg 59%
08:00 +19°C° 0 mm 1 m/s 563 mmHg 51%
09:00 +19°C° 0 mm 2 m/s 564 mmHg 47%
10:00 +21°C° 0 mm 2 m/s 564 mmHg 44%
11:00 +22°C° 0 mm 3 m/s 564 mmHg 40%
12:00 +22°C° 0.1 mm 3 m/s 564 mmHg 40%
13:00 +22°C° 0.1 mm 4 m/s 563 mmHg 40%
14:00 +23°C° 0.1 mm 4 m/s 562 mmHg 40%
15:00 +20°C° 3.1 mm 4 m/s 562 mmHg 50%
16:00 +18°C° 3.1 mm 4 m/s 562 mmHg 60%
17:00 +15°C° 3.1 mm 4 m/s 561 mmHg 70%
18:00 +14°C° 2.3 mm 3 m/s 561 mmHg 74%
19:00 +13°C° 2.3 mm 3 m/s 561 mmHg 78%
20:00 +13°C° 2.3 mm 2 m/s 561 mmHg 82%
21:00 +13°C° 0 mm 2 m/s 561 mmHg 79%
22:00 +13°C° 0 mm 2 m/s 561 mmHg 77%
23:00 +14°C° 0 mm 1 m/s 561 mmHg 74%

19 Mai, Mercredi

Heure Température Précipitation Vent Pression Humidité
00:00 +14°C° 0 mm 1 m/s 561 mmHg 73%
01:00 +14°C° 0 mm 1 m/s 560 mmHg 72%
02:00 +14°C° 0 mm 1 m/s 560 mmHg 72%
03:00 +14°C° 0 mm 1 m/s 560 mmHg 73%
04:00 +13°C° 0 mm 1 m/s 560 mmHg 74%
05:00 +13°C° 0 mm 1 m/s 560 mmHg 76%
06:00 +15°C° 0 mm 1 m/s 561 mmHg 70%
07:00 +18°C° 0 mm 1 m/s 562 mmHg 65%
08:00 +19°C° 0 mm 1 m/s 563 mmHg 59%
09:00 +21°C° 0.1 mm 1 m/s 563 mmHg 53%
10:00 +21°C° 0.1 mm 2 m/s 563 mmHg 47%
11:00 +23°C° 0.1 mm 2 m/s 564 mmHg 41%
12:00 +22°C° 0.2 mm 3 m/s 563 mmHg 42%
13:00 +22°C° 0.2 mm 3 m/s 563 mmHg 43%
14:00 +22°C° 0.2 mm 4 m/s 562 mmHg 44%
15:00 +20°C° 1.1 mm 3 m/s 562 mmHg 53%
16:00 +18°C° 1.1 mm 3 m/s 561 mmHg 62%
17:00 +17°C° 1.1 mm 3 m/s 561 mmHg 71%
18:00 +16°C° 0.3 mm 2 m/s 561 mmHg 71%
19:00 +16°C° 0.3 mm 2 m/s 561 mmHg 72%
20:00 +15°C° 0.3 mm 1 m/s 561 mmHg 72%
21:00 +15°C° 0 mm 1 m/s 561 mmHg 73%
22:00 +15°C° 0 mm 1 m/s 561 mmHg 74%
23:00 +14°C° 0 mm 0 m/s 561 mmHg 75%

20 Mai, Jeudi

Heure Température Précipitation Vent Pression Humidité
00:00 +13°C° 0 mm 0 m/s 561 mmHg 75%
01:00 +13°C° 0 mm 0 m/s 560 mmHg 76%
02:00 +13°C° 0 mm 0 m/s 560 mmHg 77%
03:00 +12°C° 0 mm 0 m/s 560 mmHg 77%
04:00 +12°C° 0 mm 0 m/s 560 mmHg 77%
05:00 +12°C° 0 mm 0 m/s 560 mmHg 77%
06:00 +14°C° 0 mm 0 m/s 561 mmHg 68%
07:00 +16°C° 0 mm 0 m/s 562 mmHg 59%
08:00 +18°C° 0 mm 0 m/s 563 mmHg 51%
09:00 +21°C° 0 mm 1 m/s 563 mmHg 45%
10:00 +21°C° 0 mm 2 m/s 564 mmHg 39%
11:00 +24°C° 0 mm 2 m/s 564 mmHg 33%
12:00 +24°C° 0.1 mm 3 m/s 564 mmHg 35%
13:00 +24°C° 0.1 mm 3 m/s 563 mmHg 36%
14:00 +24°C° 0.1 mm 3 m/s 563 mmHg 38%
15:00 +22°C° 0.3 mm 3 m/s 563 mmHg 44%
16:00 +21°C° 0.3 mm 3 m/s 562 mmHg 49%
17:00 +20°C° 0.3 mm 4 m/s 562 mmHg 55%
18:00 +19°C° 0.1 mm 3 m/s 562 mmHg 60%
19:00 +18°C° 0.1 mm 2 m/s 562 mmHg 65%
20:00 +18°C° 0.1 mm 1 m/s 562 mmHg 70%
21:00 +16°C° 0.1 mm 1 m/s 562 mmHg 71%
22:00 +16°C° 0.1 mm 1 m/s 562 mmHg 72%
23:00 +16°C° 0.1 mm 1 m/s 562 mmHg 74%
Voir plus

Nous avons besoin de votre consentement

Meteoprog et ses fournisseurs de services peuvent stocker et accéder à des données personnelles telles que des cookies, des identifiants d'appareils ou d'autres technologies similaires sur votre appareil et traiter ces données pour personnaliser le contenu et les publicités, ainsi que pour fournir des fonctionnalités de médias sociaux et analyser le trafic.

  • Stocker et/ou accéder à des informations sur votre appareil

    Des cookies, des identifiants d'appareils ou d'autres informations peuvent être stockés ou accessibles sur votre appareil aux fins indiquées ci-dessus.

  • Annonces et contenus personnalisés, mesure des annonces et des contenus, connaissance de l'audience et développement de produits

    Les annonces et le contenu peuvent être personnalisés en fonction d'un profil. D'autres données peuvent être ajoutées pour mieux personnaliser les annonces et le contenu. Les performances des publicités et du contenu peuvent être mesurées. Il est possible d'obtenir des informations sur le public qui a vu les publicités et le contenu. Ces données peuvent être utilisées pour développer ou améliorer l'expérience de l'utilisateur, les systèmes et les logiciels.

En cliquant sur "J'accepte", vous autorisez l'utilisation de cookies, des identifiants d'appareils, des balises web ou d'autres technologies similaires. Vos paramètres peuvent être modifiés dans le navigateur de votre appareil.

Dans certains cas, des intérêts légitimes peuvent être invoqués plutôt qu'un consentement. Vous pouvez en savoir plus à ce sujet dans notre Politique de confidentialité et de cookies.